{"data":{"norad_id":64000,"intl_designator":"2025-101G","name":"STARLINK-34152","alt_names":[],"object_type":"PAYLOAD","status":"ACTIVE","operator":null,"country":"US","launch_date":"2025-05-14","launch_site_code":"AFETR","launch_vehicle":null,"mission":null,"orbit_class":"UNKNOWN","rcs_meters":null,"size_class":null,"mass_kg":null,"dimensions":null,"purposes":["comms"],"wikipedia_slug":null,"has_3d_model":false,"image_url":null,"decayed_at":null,"tle_current":{"epoch":"2026-05-25T02:37:32.007936Z","epoch_age_seconds":62653,"freshness":"FRESH","line1":"1 64000U 25101G   26145.10939824  .00008174  00000+0  30615-3 0  9990","line2":"2 64000  42.9981 286.3009 0000295 352.4983   7.5864 15.27587815 58746","mean_motion":15.27587815,"eccentricity":2.95e-5,"inclination_deg":42.9981,"raan_deg":286.3009,"arg_perigee_deg":352.4983,"mean_anomaly_deg":7.5864,"bstar":0.00030615,"rev_number":5874,"period_min":94.266266453559,"perigee_km":482.82329091848,"apogee_km":483.22809951749,"semimajor_km":6861.162695218,"source":"CELESTRAK","updated_at":"2026-05-25T13:38:20.218583Z"}}}